"Pseudo-MPEC" for P110ClU

Created 2020 May 26 12:07:15 UT using Find_Orb

Click here for an explanation of pseudo-MPECs

 
 Astrometry: 
     P110ClU  C2020 05 20SOUIi@p8h!O8L9mQ0$TTG0V_k'gr\M2Astrometry5hredacted;F51
     P110ClU  C2020 05 208Eb/]Q0fC\6h6nvk;-!TR\AJ?I].%%!Kgclick0.rtu;0!+xkyu6F51
     P110ClU  C2020 05 20n\8H4tD9mmPVr/WwvA,Io'%\$XMW-dLhereCVNW*LJxs.F/eC``)F51
     P110ClU  C2020 05 20/Ud'4forF+FNexplanationcSliv=.,D2^=3l=v1a6qjyU';U2a)F51

Station data:
(F51) Pan-STARRS 1, Haleakala  (N20.707235 W156.255910)  US/Hawaii.
   Observers N. Primak, A. Schultz, S. Watters, J. Thiel, T. Goggia. Measurer
   PS1 Science Consortium. 1.8-m Ritchey-Chrétien + CCD.

Orbital elements:  P110ClU
   Perihelion 2020 May 28.704256 +/- 49.1 TT = 16:54:07 (JD 2458998.204256)
Epoch 2020 May 20.0 TT = JDT 2458989.5   Earth MOID: 0.3946   Ma: 0.0995
M 357.39943934 +/- 20               (J2000 ecliptic)          AutoNEOCP
n   0.29876886 +/- 0.263            Peri.    8.79099 +/- 57
a   2.21604797 +/- 1.29             Node   240.19362 +/- 30
e   0.3646946 +/- 0.25              Incl.    6.35099 +/- 4.5
P   3.30                   H 22.9   G  0.15   U 11.8  SR
q 1.40786705 +/- 0.425    Q 3.02422889 +/- 76.4
From 4 observations 2020 May 20 (39.8 min); mean residual 0".10
Residuals in arcseconds: 
200520 F51  .01-  .09-    200520 F51  .03+  .22+    
200520 F51  .00   .02+    200520 F51  .02-  .15-    

Ephemerides (geocentric):
Date (UTC) HH   RA              Dec         delta   r     elong  mag " sig PA
---- -- -- --  -------------   -----------  ------ ------ -----  --- ---- ---
2020 05 26 12  16 45 48.855   -19 29 03.12  .39736 1.4080 172.4 22.1  39d 169
2020 05 26 13  16 45 49.145   -19 28 22.21  .39732 1.4080 172.4 22.1  39d 168
2020 05 26 14  16 45 49.433   -19 27 41.31  .39729 1.4080 172.4 22.1  40d 168
2020 05 26 15  16 45 49.721   -19 27 00.40  .39726 1.4080 172.5 22.1  40d 168
2020 05 26 16  16 45 50.007   -19 26 19.50  .39722 1.4080 172.5 22.1  40d 168
2020 05 26 17  16 45 50.291   -19 25 38.59  .39719 1.4080 172.5 22.1  40d 169
2020 05 26 18  16 45 50.574   -19 24 57.68  .39716 1.4080 172.5 22.1  41d 169
2020 05 26 19  16 45 50.856   -19 24 16.77  .39712 1.4080 172.6 22.1  41d 169
2020 05 26 20  16 45 51.136   -19 23 35.86  .39709 1.4080 172.6 22.1  41d 169
2020 05 26 21  16 45 51.415   -19 22 54.95  .39706 1.4080 172.6 22.1  41d 169
2020 05 26 22  16 45 51.693   -19 22 14.03  .39703 1.4080 172.7 22.1  41d 169
2020 05 26 23  16 45 51.969   -19 21 33.12  .39700 1.4080 172.7 22.1  41d 169
2020 05 27 00  16 45 52.244   -19 20 52.21  .39697 1.4079 172.7 22.1  41d 169
2020 05 27 01  16 45 52.518   -19 20 11.29  .39693 1.4079 172.8 22.1  41d 169
2020 05 27 02  16 45 52.791   -19 19 30.38  .39690 1.4079 172.8 22.1  41d 169
2020 05 27 03  16 45 53.062   -19 18 49.47  .39687 1.4079 172.8 22.1  41d 170
2020 05 27 04  16 45 53.331   -19 18 08.55  .39684 1.4079 172.9 22.1  41d 170
2020 05 27 05  16 45 53.600   -19 17 27.64  .39681 1.4079 172.9 22.1  41d 170
2020 05 27 06  16 45 53.867   -19 16 46.73  .39678 1.4079 172.9 22.1  41d 170
2020 05 27 07  16 45 54.133   -19 16 05.81  .39675 1.4079 173.0 22.1  41d 170
2020 05 27 08  16 45 54.398   -19 15 24.90  .39672 1.4079 173.0 22.1  41d 170
2020 05 27 09  16 45 54.661   -19 14 43.99  .39669 1.4079 173.0 22.1  41d 170
2020 05 27 10  16 45 54.924   -19 14 03.08  .39667 1.4079 173.1 22.1  41d 170
2020 05 27 11  16 45 55.185   -19 13 22.17  .39664 1.4079 173.1 22.1  41d 170
2020 05 27 12  16 45 55.444   -19 12 41.26  .39661 1.4079 173.1 22.1  41d 170
2020 05 27 13  16 45 55.703   -19 12 00.35  .39658 1.4079 173.2 22.1  41d 170
2020 05 27 14  16 45 55.960   -19 11 19.44  .39655 1.4079 173.2 22.1  41d 170
2020 05 27 15  16 45 56.216   -19 10 38.53  .39653 1.4079 173.2 22.1  41d 170
2020 05 27 16  16 45 56.471   -19 09 57.63  .39650 1.4079 173.2 22.1  41d 170
2020 05 27 17  16 45 56.725   -19 09 16.73  .39647 1.4079 173.3 22.1  41d 170
2020 05 27 18  16 45 56.978   -19 08 35.82  .39644 1.4079 173.3 22.1  41d 170
2020 05 27 19  16 45 57.229   -19 07 54.92  .39642 1.4079 173.3 22.1  41d 170
2020 05 27 20  16 45 57.479   -19 07 14.02  .39639 1.4079 173.4 22.1  41d 170
2020 05 27 21  16 45 57.728   -19 06 33.13  .39637 1.4079 173.4 22.1  41d 170
2020 05 27 22  16 45 57.976   -19 05 52.23  .39634 1.4079 173.4 22.1  41d 170
2020 05 27 23  16 45 58.223   -19 05 11.34  .39631 1.4079 173.5 22.1  41d 169
2020 05 28 00  16 45 58.469   -19 04 30.45  .39629 1.4079 173.5 22.1  42d 169
2020 05 28 01  16 45 58.713   -19 03 49.56  .39626 1.4079 173.5 22.1  42d 169
2020 05 28 02  16 45 58.956   -19 03 08.67  .39624 1.4079 173.5 22.1  42d 169
2020 05 28 03  16 45 59.199   -19 02 27.79  .39621 1.4079 173.6 22.1  42d 168
2020 05 28 04  16 45 59.440   -19 01 46.90  .39619 1.4079 173.6 22.1  43d 168
2020 05 28 05  16 45 59.680   -19 01 06.02  .39617 1.4079 173.6 22.1  43d 168
2020 05 28 06  16 45 59.919   -19 00 25.15  .39614 1.4079 173.7 22.1  43d 168
2020 05 28 07  16 46 00.157   -18 59 44.27  .39612 1.4079 173.7 22.1  44d 168
2020 05 28 08  16 46 00.394   -18 59 03.40  .39610 1.4079 173.7 22.1  44d 168
2020 05 28 09  16 46 00.630   -18 58 22.53  .39607 1.4079 173.7 22.1  44d 168
2020 05 28 10  16 46 00.865   -18 57 41.67  .39605 1.4079 173.8 22.1  44d 168
2020 05 28 11  16 46 01.098   -18 57 00.81  .39603 1.4079 173.8 22.1  44d 168